Tracking 19709 objects as of 17-Jun-2019
HD Live streaming from Space Station
objects crossing your sky now

DMSP 5D-2 F11 DEB

Track DMSP 5D-2 F11 DEB now!
10-day predictions


NORAD ID: 28330
Int'l Code: 1991-082AT
Perigee: 778.5 km
Apogee: 908.9 km
Inclination: 99.0 °
Period: 101.6 minutes
Semi major axis: 7214 km
RCS: 0.0098 m2 (small)
Launch date: November 28, 1991
Source: United States (US)
Launch site: AIR FORCE WESTERN TEST RANGE (AFWTR)

Note: This is SATELLITE DEBRIS
aabbcc
Your satellite tracking list
Your tracking list is empty




NASA's NSSDC Master Catalog

Two Line Element Set (TLE):
1 28330U 91082AT  19168.21480469  .00000734  00000-0  37526-3 0  9995
2 28330  98.9916 151.8325 0090370 278.6866  80.4079 14.16680816776534
Source of the keplerian elements: AFSPC